weather.gov     
National Weather Service

Regional Weather Roundup
NWS Homepage
This page is being discontinued on March 12, 2014.
The same data is available at this site. Please update your bookmarks.
Thank you, and we apologize for the inconvenience.
Please send an email to SR-SRH.Webmaster@noaa.gov with any concerns.


Current Version
Previous Version:    01  02  03  04  05  06  07  08  09  10  11  12  13  14  15  16  17  18  19  20  21  22  23  24  25  26  27  28  29  30  
   31  32  33  34  35  36  37  38  39  40  41  42  43  44  45  46  47  48  49  50  51  52  53  54  55  56  
[Printable]
868
ASCA42 TJSJ 021011
RWRPR
PUERTO RICO/U.S. VIRGIN ISLANDS HOURLY WEATHER ROUNDUP
NATIONAL WEATHER SERVICE SAN JUAN PR
600 AM AST THU OCT 02 2014

PRZ001-004-021100-
PUERTO RICO

CITY           SKY/WX    TMP DP  RH WIND       PRES   REMARKS
SAN JUAN LMM   PTCLDY    81  75  83 CALM      30.01R
CEIBA          PTCLDY    81  75  83 CALM      30.04R
$$

PRZ006-007-021100-
U.S. VIRGIN ISLANDS

CITY           SKY/WX    TMP DP  RH WIND       PRES   REMARKS
CHRISTIANSTED  PTCLDY    82  75  78 E10       30.02
$$

HOURLY WEATHER ROUNDUP FOR THE NEWS MEDIA

CITY           SKY/WX    TMP DP  RH WIND       PRES   REMARKS
MIAMI          PTCLDY    80  76  87 W3        29.97R
ORLANDO        CLEAR     75  73  93 E5        29.98R
NEW YORK       CLOUDY    61  55  81 N9        30.10R
NEWARK         CLOUDY    61  57  87 N8        30.11R
CHICAGO        CLOUDY    63  58  83 SE9       29.85F
HARTFORD       CLOUDY    58  57  97 N8G18     30.06R
BOSTON         LGT RAIN  55  54  96 NE20      30.14R
DALLAS         PTCLDY    78  71  79 S12       29.78R
PHILADELPHIA   PTCLDY    63  56  78 NE9       30.10R




U.S. Dept. of Commerce
NOAA National Weather Service
1325 East West Highway
Silver Spring, MD 20910
E-mail: w-nws.webmaster@noaa.gov
Page last modified: May 16, 2007
NATIONAL WEATHER SERVICE: for Safety, for Work, for Fun - FOR LIFE